This is the latest recevied weather packets stored in our database for station/object K4ZZR. If no packets are shown the sender has not sent any weather packets the latest 10 day(s).
| Time | Temp. | Humidity | Pressure | Rain* | Wind** | Luminosity | Snow |
|---|---|---|---|---|---|---|---|
| 1777727062 | 25.56° C | 88% | 1010.9 hPa | 0 mm | - | 345 W/m² | - |
| 1777726760 | 25.56° C | 87% | 1010.7 hPa | 0 mm | - | 340 W/m² | - |
| 1777726457 | 25.56° C | 88% | 1010.8 hPa | 0 mm | - | 323 W/m² | - |
| 1777726154 | 25.56° C | 87% | 1010.5 hPa | 0 mm | - | 292 W/m² | - |
| 1777725850 | 25.56° C | 86% | 1010.6 hPa | 0 mm | - | 261 W/m² | - |
| 1777725549 | 25° C | 86% | 1010.8 hPa | 0 mm | - | 245 W/m² | - |
| 1777725245 | 25° C | 86% | 1011.1 hPa | 0 mm | - | 233 W/m² | - |
| 1777724943 | 24.44° C | 86% | 1010.8 hPa | 0 mm | - | 220 W/m² | - |
| 1777724638 | 24.44° C | 86% | 1010.9 hPa | 0 mm | - | 193 W/m² | - |
| 1777724336 | 24.44° C | 86% | 1010.8 hPa | 0 mm | - | 183 W/m² | - |
| 1777724033 | 24.44° C | 86% | 1010.8 hPa | 0 mm | - | 177 W/m² | - |
| 1777723731 | 23.89° C | 86% | 1010.9 hPa | 0 mm | - | 152 W/m² | - |
| 1777723427 | 23.89° C | 87% | 1010.9 hPa | 0 mm | - | 135 W/m² | - |
| 1777723124 | 23.89° C | 87% | 1010.8 hPa | 0 mm | - | 118 W/m² | - |
| 1777722822 | 23.33° C | 87% | 1011.1 hPa | 0 mm | - | 115 W/m² | - |
| 1777722518 | 22.78° C | 88% | 1011 hPa | 0 mm | - | 112 W/m² | - |
| 1777722215 | 22.78° C | 88% | 1011 hPa | 0 mm | - | 99 W/m² | - |
| 1777721912 | 22.78° C | 89% | 1011.2 hPa | 0 mm | - | 87 W/m² | - |
| 1777721609 | 22.22° C | 89% | 1011.1 hPa | 0 mm | - | 66 W/m² | - |
| 1777721308 | 22.22° C | 89% | 1011.1 hPa | 0 mm | - | 53 W/m² | - |
| 1777721005 | 22.22° C | 89% | 1010.9 hPa | 0 mm | - | 47 W/m² | - |
| 1777720702 | 22.22° C | 89% | 1010.8 hPa | 0 mm | - | 49 W/m² | - |
| 1777720399 | 21.67° C | 89% | 1011.1 hPa | 0 mm | - | 38 W/m² | - |
| 1777720097 | 21.67° C | 90% | 1011 hPa | 0 mm | - | 33 W/m² | - |
| 1777719795 | 21.67° C | 90% | 1010.9 hPa | 0 mm | - | 25 W/m² | - |
* Rain latest hour (hover to see other rain measurements)
** Current wind speed in m/s (hover to see current wind gust speed)